Time,TemperatureF,DewpointF,PressureIn,WindDirection,WindDirectionDegrees,WindSpeedMPH,WindSpeedGustMPH,Humidity,HourlyPrecipIn,Conditions,Clouds,dailyrainin,SolarRadiationWatts/m^2,SoftwareType,DateUTC
2013-09-23 00:00:00,46.2,43.4,30.03,WNW,285,0.0,0.0,90,0.00,,,0.00,0,Wunderground v.1.15,2013-09-23 04:00:00,
2013-09-23 00:05:00,46.0,43.2,30.03,WNW,285,0.0,0.0,90,0.00,,,0.00,0,Wunderground v.1.15,2013-09-23 04:05:00,
2013-09-23 00:10:00,45.9,43.1,30.03,WNW,285,0.0,0.0,90,0.00,,,0.00,0,Wunderground v.1.15,2013-09-23 04:10:00,
2013-09-23 00:15:00,45.7,42.9,30.03,WNW,285,0.0,0.0,90,0.00,,,0.00,0,Wunderground v.1.15,2013-09-23 04:15:00,
2013-09-23 00:20:00,45.6,42.8,30.03,WNW,285,0.0,0.0,90,0.00,,,0.00,0,Wunderground v.1.15,2013-09-23 04:20:00,
2013-09-23 00:25:00,45.4,42.6,30.04,WNW,285,0.0,0.0,90,0.00,,,0.00,0,Wunderground v.1.15,2013-09-23 04:25:00,
2013-09-23 00:30:00,45.3,42.5,30.04,WNW,285,0.0,0.0,90,0.00,,,0.00,0,Wunderground v.1.15,2013-09-23 04:30:00,
2013-09-23 00:35:00,45.1,42.3,30.04,WNW,285,0.0,0.0,90,0.00,,,0.00,0,Wunderground v.1.15,2013-09-23 04:35:00,
2013-09-23 00:40:00,45.0,42.2,30.04,WNW,285,0.0,0.0,90,0.00,,,0.00,0,Wunderground v.1.15,2013-09-23 04:40:00,
2013-09-23 00:45:00,45.0,42.2,30.04,WNW,285,0.0,0.0,90,0.00,,,0.00,0,Wunderground v.1.15,2013-09-23 04:45:00,
2013-09-23 00:50:00,44.8,42.0,30.04,WNW,285,0.0,0.0,90,0.00,,,0.00,0,Wunderground v.1.15,2013-09-23 04:50:00,
2013-09-23 00:55:00,44.7,41.9,30.04,WNW,285,0.0,0.0,90,0.00,,,0.00,0,Wunderground v.1.15,2013-09-23 04:55:00,
2013-09-23 01:00:00,44.6,41.8,30.04,WNW,285,0.0,0.0,90,0.00,,,0.00,0,Wunderground v.1.15,2013-09-23 05:00:00,
2013-09-23 01:10:00,44.3,41.6,30.04,WNW,285,0.0,0.0,90,0.00,,,0.00,0,Wunderground v.1.15,2013-09-23 05:10:00,
2013-09-23 01:15:00,44.2,41.7,30.04,WNW,285,0.0,0.0,91,0.00,,,0.00,0,Wunderground v.1.15,2013-09-23 05:15:00,
2013-09-23 01:20:00,44.1,41.4,30.04,WNW,285,0.0,0.0,90,0.00,,,0.00,0,Wunderground v.1.15,2013-09-23 05:20:00,
2013-09-23 01:25:00,44.0,41.3,30.04,WNW,285,0.0,0.0,90,0.00,,,0.00,0,Wunderground v.1.15,2013-09-23 05:25:00,
2013-09-23 01:35:00,43.8,41.3,30.05,WNW,285,0.0,0.0,91,0.00,,,0.00,0,Wunderground v.1.15,2013-09-23 05:35:00,
2013-09-23 01:40:00,43.7,41.2,30.05,WNW,285,0.0,0.0,91,0.00,,,0.00,0,Wunderground v.1.15,2013-09-23 05:40:00,
2013-09-23 01:45:00,43.6,41.1,30.05,WNW,285,0.0,0.0,91,0.00,,,0.00,0,Wunderground v.1.15,2013-09-23 05:45:00,
2013-09-23 01:50:00,43.5,41.0,30.05,WNW,285,0.0,0.0,91,0.00,,,0.00,0,Wunderground v.1.15,2013-09-23 05:50:00,
2013-09-23 02:00:00,43.3,40.8,30.05,WNW,285,0.0,0.0,91,0.00,,,0.00,0,Wunderground v.1.15,2013-09-23 06:00:00,
2013-09-23 02:05:00,43.3,40.8,30.05,WNW,285,0.0,0.0,91,0.00,,,0.00,0,Wunderground v.1.15,2013-09-23 06:05:00,
2013-09-23 02:15:00,43.1,40.7,30.06,WNW,285,0.0,0.0,91,0.00,,,0.00,0,Wunderground v.1.15,2013-09-23 06:15:00,
2013-09-23 02:20:00,43.1,40.7,30.06,WNW,285,0.0,0.0,91,0.00,,,0.00,0,Wunderground v.1.15,2013-09-23 06:20:00,
2013-09-23 02:25:00,43.0,40.6,30.06,WNW,285,0.0,0.0,91,0.00,,,0.00,0,Wunderground v.1.15,2013-09-23 06:25:00,
2013-09-23 02:30:00,43.0,40.6,30.06,WNW,285,0.0,0.0,91,0.00,,,0.00,0,Wunderground v.1.15,2013-09-23 06:30:00,
2013-09-23 02:35:00,43.0,40.6,30.06,WNW,285,0.0,0.0,91,0.00,,,0.00,0,Wunderground v.1.15,2013-09-23 06:35:00,
2013-09-23 02:40:00,43.0,40.6,30.06,WNW,285,0.0,0.0,91,0.00,,,0.00,0,Wunderground v.1.15,2013-09-23 06:40:00,
2013-09-23 02:50:00,43.0,40.6,30.06,WNW,285,0.0,0.0,91,0.00,,,0.00,0,Wunderground v.1.15,2013-09-23 06:50:00,
2013-09-23 02:55:00,43.1,40.7,30.06,WNW,285,0.0,0.0,91,0.00,,,0.00,0,Wunderground v.1.15,2013-09-23 06:55:00,
2013-09-23 03:05:00,43.1,40.7,30.06,WNW,285,0.0,0.0,91,0.00,,,0.00,0,Wunderground v.1.15,2013-09-23 07:05:00,
2013-09-23 03:15:00,43.2,40.8,30.05,WNW,285,0.0,0.0,91,0.00,,,0.00,0,Wunderground v.1.15,2013-09-23 07:15:00,
2013-09-23 03:20:00,43.2,40.8,30.05,WNW,285,0.0,0.0,91,0.00,,,0.00,0,Wunderground v.1.15,2013-09-23 07:20:00,
2013-09-23 03:25:00,43.2,40.8,30.06,WNW,285,0.0,0.0,91,0.00,,,0.00,0,Wunderground v.1.15,2013-09-23 07:25:00,
2013-09-23 03:30:00,43.2,40.8,30.06,WNW,285,0.0,0.0,91,0.00,,,0.00,0,Wunderground v.1.15,2013-09-23 07:30:00,
2013-09-23 03:40:00,43.1,40.7,30.06,WNW,285,0.0,0.0,91,0.00,,,0.00,0,Wunderground v.1.15,2013-09-23 07:40:00,
2013-09-23 03:50:00,43.0,40.6,30.06,WNW,285,0.0,0.0,91,0.00,,,0.00,0,Wunderground v.1.15,2013-09-23 07:50:00,
2013-09-23 03:55:00,42.9,40.5,30.06,WNW,285,0.0,0.0,91,0.00,,,0.00,0,Wunderground v.1.15,2013-09-23 07:55:00,
2013-09-23 04:00:00,42.7,40.3,30.06,WNW,285,0.0,0.0,91,0.00,,,0.00,0,Wunderground v.1.15,2013-09-23 08:00:00,
2013-09-23 04:10:00,42.5,40.1,30.06,WNW,285,0.0,0.0,91,0.00,,,0.00,0,Wunderground v.1.15,2013-09-23 08:10:00,
2013-09-23 04:15:00,42.4,40.0,30.06,WNW,285,0.0,0.0,91,0.00,,,0.00,0,Wunderground v.1.15,2013-09-23 08:15:00,
2013-09-23 04:25:00,42.1,39.7,30.06,WNW,285,0.0,0.0,91,0.00,,,0.00,0,Wunderground v.1.15,2013-09-23 08:25:00,
2013-09-23 04:30:00,42.0,39.6,30.06,WNW,285,0.0,0.0,91,0.00,,,0.00,0,Wunderground v.1.15,2013-09-23 08:30:00,
2013-09-23 04:35:00,41.9,39.5,30.07,WNW,285,0.0,0.0,91,0.00,,,0.00,0,Wunderground v.1.15,2013-09-23 08:35:00,
2013-09-23 04:40:00,41.8,39.4,30.07,WNW,285,0.0,0.0,91,0.00,,,0.00,0,Wunderground v.1.15,2013-09-23 08:40:00,
2013-09-23 04:45:00,41.7,39.3,30.06,WNW,285,0.0,0.0,91,0.00,,,0.00,0,Wunderground v.1.15,2013-09-23 08:45:00,
2013-09-23 04:50:00,41.6,39.2,30.07,WNW,285,0.0,0.0,91,0.00,,,0.00,0,Wunderground v.1.15,2013-09-23 08:50:00,
2013-09-23 04:55:00,41.5,39.1,30.07,WNW,285,0.0,0.0,91,0.00,,,0.00,0,Wunderground v.1.15,2013-09-23 08:55:00,
2013-09-23 05:05:00,41.4,39.0,30.07,WNW,285,0.0,0.0,91,0.00,,,0.00,0,Wunderground v.1.15,2013-09-23 09:05:00,
2013-09-23 05:10:00,41.3,38.9,30.07,WNW,285,0.0,0.0,91,0.00,,,0.00,0,Wunderground v.1.15,2013-09-23 09:10:00,
2013-09-23 05:20:00,41.1,38.7,30.08,WNW,285,0.0,0.0,91,0.00,,,0.00,0,Wunderground v.1.15,2013-09-23 09:20:00,
2013-09-23 05:25:00,41.1,38.7,30.08,WNW,285,0.0,0.0,91,0.00,,,0.00,0,Wunderground v.1.15,2013-09-23 09:25:00,
2013-09-23 05:30:00,41.0,38.6,30.08,WNW,285,0.0,0.0,91,0.00,,,0.00,0,Wunderground v.1.15,2013-09-23 09:30:00,
2013-09-23 05:40:00,40.9,38.5,30.08,WNW,285,0.0,0.0,91,0.00,,,0.00,0,Wunderground v.1.15,2013-09-23 09:40:00,
2013-09-23 05:45:00,40.8,38.4,30.08,WNW,285,0.0,0.0,91,0.00,,,0.00,0,Wunderground v.1.15,2013-09-23 09:45:00,
2013-09-23 05:55:00,40.7,38.3,30.08,WNW,285,0.0,0.0,91,0.00,,,0.00,0,Wunderground v.1.15,2013-09-23 09:55:00,
2013-09-23 06:00:00,40.7,38.3,30.08,WNW,285,0.0,0.0,91,0.00,,,0.00,0,Wunderground v.1.15,2013-09-23 10:00:00,
2013-09-23 06:05:00,40.6,38.2,30.08,WNW,285,0.0,0.0,91,0.00,,,0.00,0,Wunderground v.1.15,2013-09-23 10:05:00,
2013-09-23 06:15:00,40.4,38.0,30.09,WNW,285,0.0,0.0,91,0.00,,,0.00,0,Wunderground v.1.15,2013-09-23 10:15:00,
2013-09-23 06:20:00,40.4,38.0,30.09,WNW,285,0.0,0.0,91,0.00,,,0.00,0,Wunderground v.1.15,2013-09-23 10:20:00,
2013-09-23 06:25:00,40.3,37.9,30.09,WNW,285,0.0,0.0,91,0.00,,,0.00,0,Wunderground v.1.15,2013-09-23 10:25:00,
2013-09-23 06:35:00,40.1,37.7,30.10,WNW,285,0.0,0.0,91,0.00,,,0.00,0,Wunderground v.1.15,2013-09-23 10:35:00,
2013-09-23 06:40:00,40.1,37.7,30.10,WNW,285,0.0,0.0,91,0.00,,,0.00,0,Wunderground v.1.15,2013-09-23 10:40:00,
2013-09-23 06:45:00,40.0,37.6,30.10,WNW,285,0.0,0.0,91,0.00,,,0.00,0,Wunderground v.1.15,2013-09-23 10:45:00,
2013-09-23 06:50:00,39.9,37.5,30.10,WNW,285,0.0,0.0,91,0.00,,,0.00,0,Wunderground v.1.15,2013-09-23 10:50:00,
2013-09-23 07:00:00,39.8,37.4,30.11,WNW,285,0.0,0.0,91,0.00,,,0.00,0,Wunderground v.1.15,2013-09-23 11:00:00,
2013-09-23 07:10:00,39.7,37.3,30.11,WNW,285,0.0,0.0,91,0.00,,,0.00,0,Wunderground v.1.15,2013-09-23 11:10:00,
2013-09-23 07:15:00,39.6,37.2,30.12,WNW,285,0.0,0.0,91,0.00,,,0.00,0,Wunderground v.1.15,2013-09-23 11:15:00,
2013-09-23 07:25:00,39.5,37.1,30.11,WNW,285,0.0,0.0,91,0.00,,,0.00,5,Wunderground v.1.15,2013-09-23 11:25:00,
2013-09-23 07:35:00,39.4,37.0,30.12,WNW,285,0.0,0.0,91,0.00,,,0.00,9,Wunderground v.1.15,2013-09-23 11:35:00,
2013-09-23 07:40:00,39.3,36.9,30.12,WNW,285,0.0,0.0,91,0.00,,,0.00,11,Wunderground v.1.15,2013-09-23 11:40:00,
2013-09-23 07:45:00,39.3,36.9,30.12,WNW,285,0.0,0.0,91,0.00,,,0.00,12,Wunderground v.1.15,2013-09-23 11:45:00,
2013-09-23 07:50:00,39.3,36.9,30.12,WNW,285,0.0,0.0,91,0.00,,,0.00,12,Wunderground v.1.15,2013-09-23 11:50:00,
2013-09-23 07:55:00,39.3,36.9,30.12,WNW,285,0.0,0.0,91,0.00,,,0.00,14,Wunderground v.1.15,2013-09-23 11:55:00,
2013-09-23 08:00:00,39.3,36.9,30.12,WNW,285,0.0,0.0,91,0.00,,,0.00,16,Wunderground v.1.15,2013-09-23 12:00:00,
2013-09-23 08:10:00,39.3,36.9,30.12,WNW,285,0.0,0.0,91,0.00,,,0.00,18,Wunderground v.1.15,2013-09-23 12:10:00,
2013-09-23 08:15:00,39.4,37.0,30.12,WNW,285,0.0,0.0,91,0.00,,,0.00,19,Wunderground v.1.15,2013-09-23 12:15:00,
2013-09-23 08:20:00,39.5,37.1,30.12,WNW,285,0.0,0.0,91,0.00,,,0.00,19,Wunderground v.1.15,2013-09-23 12:20:00,
2013-09-23 08:25:00,39.6,37.2,30.12,WNW,285,0.0,0.0,91,0.00,,,0.00,21,Wunderground v.1.15,2013-09-23 12:25:00,
2013-09-23 08:30:00,39.7,37.3,30.12,WNW,285,0.0,0.0,91,0.00,,,0.00,26,Wunderground v.1.15,2013-09-23 12:30:00,
2013-09-23 08:40:00,40.0,37.9,30.13,WNW,285,0.0,0.0,92,0.00,,,0.00,25,Wunderground v.1.15,2013-09-23 12:40:00,
2013-09-23 08:45:00,40.2,37.8,30.13,WNW,285,0.0,0.0,91,0.00,,,0.00,25,Wunderground v.1.15,2013-09-23 12:45:00,
2013-09-23 08:50:00,40.5,38.4,30.13,WNW,285,0.0,0.0,92,0.00,,,0.00,26,Wunderground v.1.15,2013-09-23 12:50:00,
2013-09-23 08:55:00,40.9,38.8,30.13,WNW,285,0.0,0.0,92,0.00,,,0.00,26,Wunderground v.1.15,2013-09-23 12:55:00,
2013-09-23 09:00:00,41.2,38.8,30.13,WNW,285,0.0,0.0,91,0.00,,,0.00,26,Wunderground v.1.15,2013-09-23 13:00:00,
2013-09-23 09:05:00,41.6,39.4,30.13,WNW,285,0.0,0.0,92,0.00,,,0.00,28,Wunderground v.1.15,2013-09-23 13:05:00,
2013-09-23 09:10:00,42.0,39.8,30.13,WNW,285,0.0,0.0,92,0.00,,,0.00,79,Wunderground v.1.15,2013-09-23 13:10:00,
2013-09-23 09:20:00,43.1,40.7,30.13,WNW,285,0.0,0.0,91,0.00,,,0.00,146,Wunderground v.1.15,2013-09-23 13:20:00,
2013-09-23 09:30:00,45.0,42.5,30.13,WNW,285,0.0,0.0,91,0.00,,,0.00,329,Wunderground v.1.15,2013-09-23 13:30:00,
2013-09-23 09:40:00,48.0,45.5,30.13,WNW,285,0.0,0.0,91,0.00,,,0.00,359,Wunderground v.1.15,2013-09-23 13:40:00,
2013-09-23 09:45:00,49.1,46.6,30.13,South,174,0.0,0.0,91,0.00,,,0.00,373,Wunderground v.1.15,2013-09-23 13:45:00,
2013-09-23 09:50:00,50.2,47.7,30.14,SSE,168,0.0,0.0,91,0.00,,,0.00,392,Wunderground v.1.15,2013-09-23 13:50:00,
2013-09-23 10:00:00,51.8,49.3,30.14,SSE,168,0.0,0.0,91,0.00,,,0.00,431,Wunderground v.1.15,2013-09-23 14:00:00,
2013-09-23 10:05:00,52.3,49.8,30.14,SSE,168,0.0,0.0,91,0.00,,,0.00,446,Wunderground v.1.15,2013-09-23 14:05:00,
2013-09-23 10:10:00,52.8,50.2,30.14,SSE,165,0.0,0.0,91,0.00,,,0.00,446,Wunderground v.1.15,2013-09-23 14:10:00,
2013-09-23 10:15:00,53.4,50.8,30.14,SSE,163,0.0,2.0,91,0.00,,,0.00,476,Wunderground v.1.15,2013-09-23 14:15:00,
2013-09-23 10:20:00,54.0,51.4,30.14,SSE,153,1.0,1.0,91,0.00,,,0.00,503,Wunderground v.1.15,2013-09-23 14:20:00,
2013-09-23 10:25:00,54.6,51.7,30.14,SSE,160,2.0,2.0,90,0.00,,,0.00,513,Wunderground v.1.15,2013-09-23 14:25:00,
2013-09-23 10:30:00,55.4,52.8,30.14,SSE,148,1.0,1.0,91,0.00,,,0.00,601,Wunderground v.1.15,2013-09-23 14:30:00,
2013-09-23 10:40:00,56.5,53.6,30.14,SSE,150,2.0,3.0,90,0.00,,,0.00,587,Wunderground v.1.15,2013-09-23 14:40:00,
2013-09-23 10:50:00,57.4,54.8,30.15,NNE,15,0.0,0.0,91,0.00,,,0.00,664,Wunderground v.1.15,2013-09-23 14:50:00,
2013-09-23 11:00:00,58.4,55.2,30.15,North,351,1.0,1.0,89,0.00,,,0.00,691,Wunderground v.1.15,2013-09-23 15:00:00,
2013-09-23 11:05:00,59.0,55.4,30.15,SW,220,1.0,3.0,88,0.00,,,0.00,146,Wunderground v.1.15,2013-09-23 15:05:00,
2013-09-23 11:15:00,59.4,55.2,30.15,South,170,1.0,2.0,86,0.00,,,0.00,737,Wunderground v.1.15,2013-09-23 15:15:00,
2013-09-23 11:20:00,60.2,56.0,30.15,SE,133,1.0,3.0,86,0.00,,,0.00,796,Wunderground v.1.15,2013-09-23 15:20:00,
2013-09-23 11:30:00,61.6,55.4,30.15,South,169,2.0,2.0,80,0.00,,,0.00,257,Wunderground v.1.15,2013-09-23 15:30:00,
2013-09-23 11:35:00,61.8,54.9,30.15,WSW,240,2.0,2.0,78,0.00,,,0.00,269,Wunderground v.1.15,2013-09-23 15:35:00,
2013-09-23 11:40:00,61.7,54.1,30.16,SW,221,0.0,0.0,76,0.00,,,0.00,202,Wunderground v.1.15,2013-09-23 15:40:00,
2013-09-23 11:45:00,61.5,53.5,30.15,NNE,13,0.0,2.0,75,0.00,,,0.00,183,Wunderground v.1.15,2013-09-23 15:45:00,
2013-09-23 11:50:00,61.2,53.9,30.16,West,273,1.0,1.0,77,0.00,,,0.00,230,Wunderground v.1.15,2013-09-23 15:50:00,
2013-09-23 11:55:00,61.1,54.9,30.15,ESE,115,1.0,1.0,80,0.00,,,0.00,241,Wunderground v.1.15,2013-09-23 15:55:00,
2013-09-23 12:00:00,60.9,53.6,30.15,SW,232,0.0,0.0,77,0.00,,,0.00,213,Wunderground v.1.15,2013-09-23 16:00:00,
2013-09-23 12:05:00,60.7,53.8,30.15,SSE,155,0.0,2.0,78,0.00,,,0.00,265,Wunderground v.1.15,2013-09-23 16:05:00,
2013-09-23 12:10:00,60.6,54.0,30.16,SSE,167,1.0,1.0,79,0.00,,,0.00,299,Wunderground v.1.15,2013-09-23 16:10:00,
2013-09-23 12:15:00,60.6,54.7,30.15,South,169,1.0,1.0,81,0.00,,,0.00,311,Wunderground v.1.15,2013-09-23 16:15:00,
2013-09-23 12:20:00,60.7,55.2,30.15,South,169,0.0,0.0,82,0.00,,,0.00,281,Wunderground v.1.15,2013-09-23 16:20:00,
2013-09-23 12:25:00,60.7,54.8,30.15,SSE,163,1.0,3.0,81,0.00,,,0.00,258,Wunderground v.1.15,2013-09-23 16:25:00,
2013-09-23 12:30:00,60.6,53.7,30.15,South,169,1.0,1.0,78,0.00,,,0.00,285,Wunderground v.1.15,2013-09-23 16:30:00,
2013-09-23 12:40:00,60.8,53.9,30.14,SSE,168,1.0,1.0,78,0.00,,,0.00,316,Wunderground v.1.15,2013-09-23 16:40:00,
2013-09-23 12:50:00,61.4,53.8,30.14,ESE,109,1.0,4.0,76,0.00,,,0.00,264,Wunderground v.1.15,2013-09-23 16:50:00,
2013-09-23 13:00:00,61.6,54.7,30.14,WSW,243,1.0,1.0,78,0.00,,,0.00,237,Wunderground v.1.15,2013-09-23 17:00:00,
2013-09-23 13:05:00,61.5,53.9,30.14,NNE,15,0.0,1.0,76,0.00,,,0.00,236,Wunderground v.1.15,2013-09-23 17:05:00,
2013-09-23 13:10:00,61.5,54.6,30.14,NNE,17,0.0,1.0,78,0.00,,,0.00,246,Wunderground v.1.15,2013-09-23 17:10:00,
2013-09-23 13:15:00,61.4,53.8,30.14,SW,214,1.0,1.0,76,0.00,,,0.00,262,Wunderground v.1.15,2013-09-23 17:15:00,
2013-09-23 13:25:00,61.5,54.6,30.14,WNW,295,1.0,1.0,78,0.00,,,0.00,367,Wunderground v.1.15,2013-09-23 17:25:00,
2013-09-23 13:35:00,62.0,54.7,30.14,NW,313,1.0,4.0,77,0.00,,,0.00,473,Wunderground v.1.15,2013-09-23 17:35:00,
2013-09-23 13:40:00,62.3,53.9,30.14,North,360,1.0,1.0,74,0.00,,,0.00,350,Wunderground v.1.15,2013-09-23 17:40:00,
2013-09-23 13:45:00,62.6,54.9,30.14,WSW,246,1.0,1.0,76,0.00,,,0.00,288,Wunderground v.1.15,2013-09-23 17:45:00,
2013-09-23 13:55:00,62.8,54.0,30.13,WSW,252,0.0,1.0,73,0.00,,,0.00,193,Wunderground v.1.15,2013-09-23 17:55:00,
2013-09-23 14:00:00,62.8,54.8,30.13,SW,233,0.0,1.0,75,0.00,,,0.00,193,Wunderground v.1.15,2013-09-23 18:00:00,
2013-09-23 14:05:00,63.2,55.1,30.13,SSW,200,0.0,1.0,75,0.00,,,0.00,738,Wunderground v.1.15,2013-09-23 18:05:00,
2013-09-23 14:10:00,63.9,55.8,30.13,SSW,200,0.0,0.0,75,0.00,,,0.00,195,Wunderground v.1.15,2013-09-23 18:10:00,
2013-09-23 14:15:00,64.4,55.6,30.12,WNW,284,0.0,0.0,73,0.00,,,0.00,828,Wunderground v.1.15,2013-09-23 18:15:00,
2013-09-23 14:20:00,64.8,54.8,30.12,SW,223,1.0,3.0,70,0.00,,,0.00,438,Wunderground v.1.15,2013-09-23 18:20:00,
2013-09-23 14:25:00,65.1,54.3,30.12,SW,227,1.0,3.0,68,0.00,,,0.00,366,Wunderground v.1.15,2013-09-23 18:25:00,
2013-09-23 14:30:00,65.3,55.7,30.12,WNW,290,1.0,1.0,71,0.00,,,0.00,323,Wunderground v.1.15,2013-09-23 18:30:00,
2013-09-23 14:35:00,65.3,56.4,30.12,WNW,295,0.0,1.0,73,0.00,,,0.00,443,Wunderground v.1.15,2013-09-23 18:35:00,
2013-09-23 14:40:00,65.0,55.0,30.12,South,171,1.0,1.0,70,0.00,,,0.00,323,Wunderground v.1.15,2013-09-23 18:40:00,
2013-09-23 14:50:00,64.5,54.5,30.12,ENE,69,1.0,1.0,70,0.00,,,0.00,241,Wunderground v.1.15,2013-09-23 18:50:00,
2013-09-23 14:55:00,64.3,53.9,30.12,SW,217,1.0,3.0,69,0.00,,,0.00,802,Wunderground v.1.15,2013-09-23 18:55:00,
2013-09-23 15:05:00,65.2,54.4,30.11,NNE,17,1.0,2.0,68,0.00,,,0.00,791,Wunderground v.1.15,2013-09-23 19:05:00,
2013-09-23 15:10:00,65.8,55.7,30.11,South,178,1.0,1.0,70,0.00,,,0.00,842,Wunderground v.1.15,2013-09-23 19:10:00,
2013-09-23 15:15:00,66.5,56.8,30.11,WNW,284,2.0,2.0,71,0.00,,,0.00,840,Wunderground v.1.15,2013-09-23 19:15:00,
2013-09-23 15:20:00,66.6,55.3,30.11,SSW,208,1.0,1.0,67,0.00,,,0.00,206,Wunderground v.1.15,2013-09-23 19:20:00,
2013-09-23 15:25:00,66.4,55.9,30.11,SSW,209,1.0,1.0,69,0.00,,,0.00,229,Wunderground v.1.15,2013-09-23 19:25:00,
2013-09-23 15:35:00,66.2,54.9,30.11,South,190,1.0,4.0,67,0.00,,,0.00,603,Wunderground v.1.15,2013-09-23 19:35:00,
2013-09-23 15:40:00,66.3,54.6,30.10,SSW,202,1.0,1.0,66,0.00,,,0.00,596,Wunderground v.1.15,2013-09-23 19:40:00,
2013-09-23 15:50:00,66.9,55.6,30.10,East,84,1.0,1.0,67,0.00,,,0.00,661,Wunderground v.1.15,2013-09-23 19:50:00,
2013-09-23 15:55:00,67.1,55.8,30.10,South,175,1.0,1.0,67,0.00,,,0.00,643,Wunderground v.1.15,2013-09-23 19:55:00,
2013-09-23 16:00:00,67.0,54.8,30.10,NE,55,1.0,1.0,65,0.00,,,0.00,135,Wunderground v.1.15,2013-09-23 20:00:00,
2013-09-23 16:05:00,66.7,55.0,30.10,NW,304,0.0,1.0,66,0.00,,,0.00,83,Wunderground v.1.15,2013-09-23 20:05:00,
2013-09-23 16:10:00,66.4,56.7,30.10,NW,304,0.0,0.0,71,0.00,,,0.00,526,Wunderground v.1.15,2013-09-23 20:10:00,
2013-09-23 16:20:00,66.3,56.2,30.10,NW,304,0.0,0.0,70,0.00,,,0.00,494,Wunderground v.1.15,2013-09-23 20:20:00,
2013-09-23 16:25:00,66.5,53.9,30.10,ENE,65,0.0,0.0,64,0.00,,,0.00,494,Wunderground v.1.15,2013-09-23 20:25:00,
2013-09-23 16:30:00,66.7,55.0,30.10,SSE,163,1.0,1.0,66,0.00,,,0.00,512,Wunderground v.1.15,2013-09-23 20:30:00,
2013-09-23 16:35:00,67.0,54.8,30.10,WNW,294,1.0,1.0,65,0.00,,,0.00,533,Wunderground v.1.15,2013-09-23 20:35:00,
2013-09-23 16:40:00,67.2,54.6,30.10,West,268,1.0,1.0,64,0.00,,,0.00,526,Wunderground v.1.15,2013-09-23 20:40:00,
2013-09-23 16:45:00,67.4,55.6,30.10,WSW,245,1.0,1.0,66,0.00,,,0.00,520,Wunderground v.1.15,2013-09-23 20:45:00,
2013-09-23 16:50:00,67.5,55.3,30.10,WSW,246,0.0,0.0,65,0.00,,,0.00,373,Wunderground v.1.15,2013-09-23 20:50:00,
2013-09-23 16:55:00,67.3,54.3,30.10,WSW,245,0.0,0.0,63,0.00,,,0.00,116,Wunderground v.1.15,2013-09-23 20:55:00,
2013-09-23 17:05:00,66.7,55.0,30.10,WSW,244,0.0,0.0,66,0.00,,,0.00,371,Wunderground v.1.15,2013-09-23 21:05:00,
2013-09-23 17:10:00,66.6,55.3,30.10,WSW,246,0.0,0.0,67,0.00,,,0.00,332,Wunderground v.1.15,2013-09-23 21:10:00,
2013-09-23 17:20:00,66.5,55.6,30.10,WSW,247,0.0,0.0,68,0.00,,,0.00,318,Wunderground v.1.15,2013-09-23 21:20:00,
2013-09-23 17:25:00,66.6,55.7,30.10,WNW,289,0.0,0.0,68,0.00,,,0.00,309,Wunderground v.1.15,2013-09-23 21:25:00,
2013-09-23 17:30:00,66.5,54.8,30.10,SW,225,1.0,1.0,66,0.00,,,0.00,311,Wunderground v.1.15,2013-09-23 21:30:00,
2013-09-23 17:35:00,66.5,54.8,30.10,SW,229,0.0,1.0,66,0.00,,,0.00,302,Wunderground v.1.15,2013-09-23 21:35:00,
2013-09-23 17:40:00,66.4,54.7,30.10,East,93,0.0,1.0,66,0.00,,,0.00,120,Wunderground v.1.15,2013-09-23 21:40:00,
2013-09-23 17:45:00,66.3,53.8,30.10,West,269,0.0,1.0,64,0.00,,,0.00,63,Wunderground v.1.15,2013-09-23 21:45:00,
2013-09-23 17:50:00,65.9,54.2,30.10,West,281,1.0,1.0,66,0.00,,,0.00,37,Wunderground v.1.15,2013-09-23 21:50:00,
2013-09-23 17:55:00,65.4,55.0,30.10,West,281,0.0,1.0,69,0.00,,,0.00,40,Wunderground v.1.15,2013-09-23 21:55:00,
2013-09-23 18:00:00,64.8,54.8,30.11,West,273,0.0,0.0,70,0.00,,,0.00,25,Wunderground v.1.15,2013-09-23 22:00:00,
2013-09-23 18:05:00,64.0,54.8,30.11,West,273,0.0,0.0,72,0.00,,,0.00,25,Wunderground v.1.15,2013-09-23 22:05:00,
2013-09-23 18:15:00,62.3,54.6,30.11,West,273,0.0,0.0,76,0.00,,,0.00,18,Wunderground v.1.15,2013-09-23 22:15:00,
2013-09-23 18:20:00,61.1,54.2,30.10,West,273,0.0,0.0,78,0.00,,,0.00,16,Wunderground v.1.15,2013-09-23 22:20:00,
2013-09-23 18:25:00,60.1,53.6,30.11,West,273,0.0,0.0,79,0.00,,,0.00,16,Wunderground v.1.15,2013-09-23 22:25:00,
2013-09-23 18:30:00,59.0,53.2,30.11,West,273,0.0,0.0,81,0.00,,,0.00,16,Wunderground v.1.15,2013-09-23 22:30:00,
2013-09-23 18:35:00,58.4,52.9,30.11,West,273,0.0,0.0,82,0.00,,,0.00,14,Wunderground v.1.15,2013-09-23 22:35:00,
2013-09-23 18:40:00,57.7,52.6,30.11,West,273,0.0,0.0,83,0.00,,,0.00,14,Wunderground v.1.15,2013-09-23 22:40:00,
2013-09-23 18:45:00,57.1,52.3,30.11,West,273,0.0,0.0,84,0.00,,,0.00,12,Wunderground v.1.15,2013-09-23 22:45:00,
2013-09-23 18:50:00,56.5,51.7,30.11,West,273,0.0,0.0,84,0.00,,,0.00,14,Wunderground v.1.15,2013-09-23 22:50:00,
2013-09-23 18:55:00,56.0,51.6,30.11,West,273,0.0,0.0,85,0.00,,,0.00,12,Wunderground v.1.15,2013-09-23 22:55:00,
2013-09-23 19:00:00,55.5,51.1,30.11,West,273,0.0,0.0,85,0.00,,,0.00,11,Wunderground v.1.15,2013-09-23 23:00:00,
2013-09-23 19:10:00,54.6,50.5,30.11,West,273,0.0,0.0,86,0.00,,,0.00,7,Wunderground v.1.15,2013-09-23 23:10:00,
2013-09-23 19:20:00,53.7,49.9,30.11,West,273,0.0,0.0,87,0.00,,,0.00,0,Wunderground v.1.15,2013-09-23 23:20:00,
2013-09-23 19:30:00,52.8,49.0,30.11,West,273,0.0,0.0,87,0.00,,,0.00,0,Wunderground v.1.15,2013-09-23 23:30:00,
2013-09-23 19:35:00,52.4,48.6,30.11,West,273,0.0,0.0,87,0.00,,,0.00,0,Wunderground v.1.15,2013-09-23 23:35:00,
2013-09-23 19:40:00,52.1,48.7,30.11,West,273,0.0,0.0,88,0.00,,,0.00,0,Wunderground v.1.15,2013-09-23 23:40:00,
2013-09-23 19:45:00,51.8,48.4,30.11,West,273,0.0,0.0,88,0.00,,,0.00,0,Wunderground v.1.15,2013-09-23 23:45:00,
2013-09-23 19:50:00,51.5,48.1,30.11,West,273,0.0,0.0,88,0.00,,,0.00,0,Wunderground v.1.15,2013-09-23 23:50:00,
2013-09-23 19:55:00,51.2,47.8,30.11,West,273,0.0,0.0,88,0.00,,,0.00,0,Wunderground v.1.15,2013-09-23 23:55:00,
2013-09-23 20:00:00,50.9,47.5,30.11,West,273,0.0,0.0,88,0.00,,,0.00,0,Wunderground v.1.15,2013-09-24 00:00:00,
2013-09-23 20:10:00,50.4,47.0,30.12,West,273,0.0,0.0,88,0.00,,,0.00,0,Wunderground v.1.15,2013-09-24 00:10:00,
2013-09-23 20:15:00,50.1,46.7,30.12,West,273,0.0,0.0,88,0.00,,,0.00,0,Wunderground v.1.15,2013-09-24 00:15:00,
2013-09-23 20:20:00,49.8,46.4,30.12,West,273,0.0,0.0,88,0.00,,,0.00,0,Wunderground v.1.15,2013-09-24 00:20:00,
2013-09-23 20:30:00,49.3,45.9,30.12,West,273,0.0,0.0,88,0.00,,,0.00,0,Wunderground v.1.15,2013-09-24 00:30:00,
2013-09-23 20:35:00,49.1,45.7,30.13,West,273,0.0,0.0,88,0.00,,,0.00,0,Wunderground v.1.15,2013-09-24 00:35:00,
2013-09-23 20:40:00,48.9,45.8,30.12,West,273,0.0,0.0,89,0.00,,,0.00,0,Wunderground v.1.15,2013-09-24 00:40:00,
2013-09-23 20:50:00,48.5,45.1,30.12,West,273,0.0,0.0,88,0.00,,,0.00,0,Wunderground v.1.15,2013-09-24 00:50:00,
2013-09-23 20:55:00,48.3,45.2,30.12,West,273,0.0,0.0,89,0.00,,,0.00,0,Wunderground v.1.15,2013-09-24 00:55:00,
2013-09-23 21:05:00,47.9,44.5,30.13,West,273,0.0,0.0,88,0.00,,,0.00,0,Wunderground v.1.15,2013-09-24 01:05:00,
2013-09-23 21:15:00,47.5,44.4,30.13,West,273,0.0,0.0,89,0.00,,,0.00,0,Wunderground v.1.15,2013-09-24 01:15:00,
2013-09-23 21:20:00,47.3,43.9,30.13,West,273,0.0,0.0,88,0.00,,,0.00,0,Wunderground v.1.15,2013-09-24 01:20:00,
2013-09-23 21:25:00,47.1,44.0,30.12,West,273,0.0,0.0,89,0.00,,,0.00,0,Wunderground v.1.15,2013-09-24 01:25:00,
2013-09-23 21:30:00,47.0,43.9,30.13,West,273,0.0,0.0,89,0.00,,,0.00,0,Wunderground v.1.15,2013-09-24 01:30:00,
2013-09-23 21:35:00,46.8,43.7,30.13,West,273,0.0,0.0,89,0.00,,,0.00,0,Wunderground v.1.15,2013-09-24 01:35:00,
2013-09-23 21:40:00,46.7,43.6,30.13,West,273,0.0,0.0,89,0.00,,,0.00,0,Wunderground v.1.15,2013-09-24 01:40:00,
2013-09-23 21:45:00,46.5,43.4,30.13,West,273,0.0,0.0,89,0.00,,,0.00,0,Wunderground v.1.15,2013-09-24 01:45:00,
2013-09-23 21:50:00,46.3,43.2,30.13,West,273,0.0,0.0,89,0.00,,,0.00,0,Wunderground v.1.15,2013-09-24 01:50:00,
2013-09-23 21:55:00,46.2,43.1,30.13,West,273,0.0,0.0,89,0.00,,,0.00,0,Wunderground v.1.15,2013-09-24 01:55:00,
2013-09-23 22:00:00,46.0,42.9,30.13,West,273,0.0,0.0,89,0.00,,,0.00,0,Wunderground v.1.15,2013-09-24 02:00:00,
2013-09-23 22:05:00,45.9,42.8,30.14,West,273,0.0,0.0,89,0.00,,,0.00,0,Wunderground v.1.15,2013-09-24 02:05:00,
2013-09-23 22:10:00,45.8,42.7,30.14,West,273,0.0,0.0,89,0.00,,,0.00,0,Wunderground v.1.15,2013-09-24 02:10:00,
2013-09-23 22:15:00,45.6,42.5,30.14,West,273,0.0,0.0,89,0.00,,,0.00,0,Wunderground v.1.15,2013-09-24 02:15:00,
2013-09-23 22:20:00,45.5,42.4,30.14,West,273,0.0,0.0,89,0.00,,,0.00,0,Wunderground v.1.15,2013-09-24 02:20:00,
2013-09-23 22:25:00,45.3,42.2,30.14,West,273,0.0,0.0,89,0.00,,,0.00,0,Wunderground v.1.15,2013-09-24 02:25:00,
2013-09-23 22:30:00,45.2,42.2,30.14,West,273,0.0,0.0,89,0.00,,,0.00,0,Wunderground v.1.15,2013-09-24 02:30:00,
2013-09-23 22:35:00,45.1,42.1,30.13,West,273,0.0,0.0,89,0.00,,,0.00,0,Wunderground v.1.15,2013-09-24 02:35:00,
2013-09-23 22:45:00,45.0,42.0,30.13,West,273,0.0,0.0,89,0.00,,,0.00,0,Wunderground v.1.15,2013-09-24 02:45:00,
2013-09-23 22:50:00,44.8,41.8,30.13,West,273,0.0,0.0,89,0.00,,,0.00,0,Wunderground v.1.15,2013-09-24 02:50:00,
2013-09-23 22:55:00,44.7,41.7,30.13,West,273,0.0,0.0,89,0.00,,,0.00,0,Wunderground v.1.15,2013-09-24 02:55:00,
2013-09-23 23:00:00,44.6,41.6,30.13,West,273,0.0,0.0,89,0.00,,,0.00,0,Wunderground v.1.15,2013-09-24 03:00:00,
2013-09-23 23:05:00,44.5,41.5,30.13,West,273,0.0,0.0,89,0.00,,,0.00,0,Wunderground v.1.15,2013-09-24 03:05:00,
2013-09-23 23:10:00,44.4,41.4,30.13,West,273,0.0,0.0,89,0.00,,,0.00,0,Wunderground v.1.15,2013-09-24 03:10:00,
2013-09-23 23:15:00,44.3,41.3,30.13,West,273,0.0,0.0,89,0.00,,,0.00,0,Wunderground v.1.15,2013-09-24 03:15:00,
2013-09-23 23:20:00,44.2,41.2,30.13,West,273,0.0,0.0,89,0.00,,,0.00,0,Wunderground v.1.15,2013-09-24 03:20:00,
2013-09-23 23:25:00,44.1,41.1,30.13,West,273,0.0,0.0,89,0.00,,,0.00,0,Wunderground v.1.15,2013-09-24 03:25:00,
2013-09-23 23:30:00,44.0,41.0,30.13,West,273,0.0,0.0,89,0.00,,,0.00,0,Wunderground v.1.15,2013-09-24 03:30:00,
2013-09-23 23:35:00,43.9,40.9,30.13,West,273,0.0,0.0,89,0.00,,,0.00,0,Wunderground v.1.15,2013-09-24 03:35:00,
2013-09-23 23:40:00,43.8,40.8,30.13,West,273,0.0,0.0,89,0.00,,,0.00,0,Wunderground v.1.15,2013-09-24 03:40:00,
2013-09-23 23:45:00,43.7,40.7,30.13,West,273,0.0,0.0,89,0.00,,,0.00,0,Wunderground v.1.15,2013-09-24 03:45:00,
2013-09-23 23:50:00,43.5,40.5,30.13,West,273,0.0,0.0,89,0.00,,,0.00,0,Wunderground v.1.15,2013-09-24 03:50:00,
2013-09-23 23:55:00,43.4,40.4,30.13,West,273,0.0,0.0,89,0.00,,,0.00,0,Wunderground v.1.15,2013-09-24 03:55:00,